Weather History for Cut Bank, MT

Change the Weather History Date:

Wednesday, September 18, 2013

  Actual Average Record
Temperature  
Mean Temperature 48 °F 53 °F  
Max Temperature 56 °F 67 °F 94 °F (1981)
Min Temperature 39 °F 39 °F 23 °F (1991)
Degree Days  
Heating Degree Days 17 12  
Month to date heating degree days 37 171  
Since 1 July heating degree days 109 365  
Cooling Degree Days 0 0  
Month to date cooling degree days 31 6  
Year to date cooling degree days 226 159  
Moisture  
Dew Point 39 °F    
Average Humidity 77    
Maximum Humidity 92    
Minimum Humidity 61    
Precipitation  
Precipitation 0.05 in 0.04 in 0.55 in (1947)
Month to date precipitation 2.05 0.79  
Year to date precipitation 13.07 9.45  
Snow  
Snow 0.00 in - - ()
Snow Depth 0.00 in    
Sea Level Pressure  
Sea Level Pressure 29.81 in    
Wind  
Wind Speed 22 mph (NW)    
Max Wind Speed 36 mph    
Max Gust Speed 44 mph    
Visibility 10 miles    
Events Rain    
T = Trace of Precipitation, MM = Missing Value Source: NWS Daily Summary

Daily Weather History Graph

Daily Weather History Graph

Search for Another Location

Airport:

Trip Planner

Search our weather history database for the weather conditions in past years. The results will help you decide how hot, cold, wet, or windy it might be!

Date:

Astronomy

Sep. 18, 2013 Rise Set
Actual Time 7:10 AM MDT 7:35 PM MDT
Civil Twilight 6:39 AM MDT 8:06 PM MDT
Nautical Twilight 6:02 AM MDT 8:43 PM MDT
Astronomical Twilight 5:23 AM MDT 9:22 PM MDT
Moon 6:58 PM MDT (9/18) 6:16 AM MDT (9/18)
Length of Visible Light 13h 27m
Length of Day
12h 24m
Waxing Gibbous, 99% of the Moon is Illuminated
Sep 18
Waxing Gibbous
Sep 19
Full
Sep 26
Last Quarter
Oct 4
New
Oct 11
First Quarter

Hourly Weather History & Observations

Time (MDT) Temp. Windchill Dew Point Humidity Pressure Visibility Wind Dir Wind Speed Gust Speed Precip Events Conditions
12:56 AM 55.0 °F - 44.1 °F 67% 29.59 in 10.0 mi WSW 20.7 mph 26.5 mph N/A   Mostly Cloudy
1:07 AM 53.6 °F - 42.8 °F 67% 29.65 in 10.0 mi WSW 19.6 mph 36.8 mph N/A   Overcast
1:56 AM 51.1 °F - 45.0 °F 80% 29.56 in 10.0 mi WNW 15.0 mph 23.0 mph 0.00 in Rain Light Rain
2:56 AM 52.0 °F - 45.0 °F 77% 29.56 in 10.0 mi WNW 15.0 mph - 0.00 in   Overcast
3:56 AM 50.0 °F - 44.1 °F 80% 29.57 in 10.0 mi WNW 12.7 mph - N/A   Partly Cloudy
4:56 AM 48.9 °F - 44.1 °F 83% 29.58 in 10.0 mi WNW 13.8 mph - N/A   Mostly Cloudy
5:56 AM 48.0 °F - 43.0 °F 83% 29.62 in 10.0 mi WNW 18.4 mph 25.3 mph N/A   Mostly Cloudy
6:56 AM 45.0 °F 36.6 °F 42.1 °F 90% 29.65 in 10.0 mi NW 21.9 mph 29.9 mph 0.03 in Rain Light Rain
7:56 AM 45.0 °F 37.1 °F 42.1 °F 90% 29.69 in 10.0 mi NW 19.6 mph 28.8 mph 0.00 in Rain Light Rain
8:56 AM 45.0 °F 35.4 °F 41.0 °F 86% 29.71 in 10.0 mi NW 28.8 mph 35.7 mph 0.01 in Rain Light Rain
9:04 AM 44.6 °F 35.1 °F 39.2 °F 81% 29.73 in 10.0 mi WNW 27.6 mph 36.8 mph 0.00 in Rain Light Rain
9:56 AM 41.0 °F 29.3 °F 37.9 °F 89% 29.73 in 10.0 mi NW 33.4 mph 40.3 mph 0.00 in   Overcast
10:56 AM 41.0 °F 30.0 °F 36.0 °F 82% 29.76 in 10.0 mi NW 28.8 mph 39.1 mph N/A   Mostly Cloudy
11:56 AM 43.0 °F 32.0 °F 37.0 °F 80% 29.79 in 10.0 mi NW 33.4 mph 40.3 mph N/A   Scattered Clouds
12:56 PM 46.9 °F - 37.0 °F 68% 29.81 in 10.0 mi NW 26.5 mph 36.8 mph N/A   Mostly Cloudy
1:56 PM 48.0 °F - 36.0 °F 63% 29.82 in 10.0 mi NW 32.2 mph 40.3 mph N/A   Partly Cloudy
2:56 PM 46.0 °F 36.4 °F 35.1 °F 66% 29.85 in 10.0 mi NW 32.2 mph 40.3 mph N/A   Clear
3:56 PM 46.0 °F 37.0 °F 35.1 °F 66% 29.89 in 10.0 mi NW 27.6 mph 38.0 mph N/A   Partly Cloudy
4:25 PM 46.4 °F 37.5 °F 35.6 °F 66% 29.90 in 10.0 mi NW 27.6 mph 39.1 mph N/A   Mostly Cloudy
4:56 PM 44.1 °F 34.6 °F 35.1 °F 71% 29.92 in 10.0 mi NNW 26.5 mph 35.7 mph N/A   Mostly Cloudy
5:56 PM 43.0 °F 34.0 °F 35.1 °F 74% 29.96 in 10.0 mi NNW 21.9 mph 31.1 mph N/A   Overcast
6:56 PM 39.9 °F 29.7 °F 36.0 °F 86% 30.00 in 10.0 mi NNW 23.0 mph 29.9 mph 0.00 in Rain Light Rain
7:56 PM 39.9 °F 30.8 °F 36.0 °F 86% 30.03 in 10.0 mi NNW 18.4 mph - 0.00 in   Overcast
8:56 PM 39.9 °F 31.8 °F 37.0 °F 89% 30.06 in 10.0 mi NNW 15.0 mph - 0.00 in   Overcast
9:56 PM 39.9 °F 31.1 °F 37.0 °F 89% 30.10 in 10.0 mi NNW 17.3 mph - 0.01 in   Overcast
10:56 PM 39.9 °F 32.9 °F 37.0 °F 89% 30.12 in 10.0 mi NNW 11.5 mph - N/A   Overcast
11:56 PM 39.9 °F 33.4 °F 37.9 °F 93% 30.12 in 10.0 mi NNW 10.4 mph - 0.00 in Rain Light Rain